This is the latest recevied weather packets stored in our database for station/object OM1ATS-6. If no packets are shown the sender has not sent any weather packets the latest 10 day(s).
| Time | Temp. | Humidity | Pressure | Rain* | Wind** | Luminosity | Snow |
|---|---|---|---|---|---|---|---|
| 1777605129 | 6.11° C | 50% | 1029.6 hPa | - | - | - | - |
| 1777604829 | 6.11° C | 50% | 1029.6 hPa | - | - | - | - |
| 1777604530 | 6.11° C | 50% | 1029.6 hPa | - | - | - | - |
| 1777604229 | 6.11° C | 50% | 1029.7 hPa | - | - | - | - |
| 1777603930 | 6.11° C | 50% | 1029.7 hPa | - | - | - | - |
| 1777603630 | 6.11° C | 50% | 1029.7 hPa | - | - | - | - |
| 1777603330 | 6.67° C | 49% | 1029.7 hPa | - | - | - | - |
| 1777603029 | 6.67° C | 49% | 1029.6 hPa | - | - | - | - |
| 1777602730 | 6.67° C | 49% | 1029.6 hPa | - | - | - | - |
| 1777602429 | 7.22° C | 48% | 1029.6 hPa | - | - | - | - |
| 1777601829 | 7.78° C | 48% | 1029.5 hPa | - | - | - | - |
| 1777600330 | 6.67° C | 48% | 1029.5 hPa | - | - | - | - |
| 1777586830 | 6.11° C | 42% | 1029.7 hPa | - | - | - | - |
| 1777586230 | 6.11° C | 41% | 1029.6 hPa | - | - | - | - |
| 1777585930 | 6.11° C | 41% | 1029.6 hPa | - | - | - | - |
| 1777584730 | 6.67° C | 40% | 1029.5 hPa | - | - | - | - |
| 1777583529 | 7.78° C | 38% | 1029.9 hPa | - | - | - | - |
| 1777579930 | 8.89° C | 36% | 1029.7 hPa | - | - | - | - |
| 1777579630 | 8.89° C | 36% | 1029.7 hPa | - | - | - | - |
| 1777579030 | 9.44° C | 35% | 1029.6 hPa | - | - | - | - |
| 1777578730 | 10° C | 35% | 1029.6 hPa | - | - | - | - |
| 1777577829 | 10.56° C | 34% | 1029.7 hPa | - | - | - | - |
| 1777577530 | 10.56° C | 34% | 1029.7 hPa | - | - | - | - |
| 1777576930 | 10.56° C | 33% | 1029.7 hPa | - | - | - | - |
| 1777575429 | 11.11° C | 32% | 1029.4 hPa | - | - | - | - |
* Rain since midnight (hover to see other rain measurements)
** Current wind speed in m/s (hover to see current wind gust speed)